This is the latest recevied weather packets stored in our database for station/object W7TJC. If no packets are shown the sender has not sent any weather packets the latest 10 day(s).
| Time | Temp. | Humidity | Pressure | Rain* | Wind** | Luminosity | Snow |
|---|---|---|---|---|---|---|---|
| 1778002519 | 13.33° C | 83% | 1017.6 hPa | 0 mm | - | 40 W/m² | - |
| 1778002216 | 13.33° C | 82% | 1017.5 hPa | 0 mm | - | 38 W/m² | - |
| 1778001914 | 13.33° C | 82% | 1017.5 hPa | 0 mm | - | 38 W/m² | - |
| 1778001609 | 13.33° C | 83% | 1017.4 hPa | 0 mm | - | 40 W/m² | - |
| 1778001305 | 13.33° C | 82% | 1017.3 hPa | 0 mm | - | 41 W/m² | - |
| 1778001002 | 13.33° C | 83% | 1017.5 hPa | 0 mm | - | 44 W/m² | - |
| 1778000699 | 12.78° C | 83% | 1017.4 hPa | 0 mm | - | 50 W/m² | - |
| 1778000394 | 12.78° C | 83% | 1017.4 hPa | 0 mm | - | 39 W/m² | - |
| 1778000090 | 12.78° C | 83% | 1017.2 hPa | 0 mm | - | 35 W/m² | - |
| 1777999786 | 12.78° C | 83% | 1017.1 hPa | 0 mm | - | 33 W/m² | - |
| 1777999482 | 12.78° C | 83% | 1017.2 hPa | 0 mm | - | 33 W/m² | - |
| 1777999180 | 12.78° C | 83% | 1017.3 hPa | 0 mm | - | 32 W/m² | - |
| 1777998879 | 12.78° C | 83% | 1017.1 hPa | 0 mm | - | 31 W/m² | - |
| 1777998578 | 12.78° C | 83% | 1017.4 hPa | 0 mm | - | 32 W/m² | - |
| 1777998273 | 12.78° C | 83% | 1017.3 hPa | 0 mm | - | 35 W/m² | - |
| 1777997970 | 12.78° C | 82% | 1017.2 hPa | 0 mm | - | 34 W/m² | - |
| 1777997667 | 12.78° C | 83% | 1017.1 hPa | 0 mm | - | 36 W/m² | - |
| 1777997364 | 12.78° C | 83% | 1017.1 hPa | 0 mm | - | 38 W/m² | - |
| 1777997062 | 12.78° C | 83% | 1017.1 hPa | 0 mm | - | 34 W/m² | - |
| 1777996759 | 12.78° C | 83% | 1017.3 hPa | 0 mm | - | 30 W/m² | - |
| 1777996455 | 12.78° C | 83% | 1017 hPa | 0 mm | - | 44 W/m² | - |
| 1777996152 | 12.78° C | 83% | 1017 hPa | 0 mm | - | 33 W/m² | - |
| 1777995848 | 12.78° C | 83% | 1016.9 hPa | 0 mm | - | 41 W/m² | - |
| 1777995544 | 12.78° C | 83% | 1016.9 hPa | 0 mm | - | 38 W/m² | - |
| 1777995241 | 12.78° C | 84% | 1016.8 hPa | 0 mm | - | 26 W/m² | - |
* Rain latest hour (hover to see other rain measurements)
** Current wind speed in m/s (hover to see current wind gust speed)